Regional Weather Roundup
Issued by NWS Northern Indiana

Home | Current Version | Previous Version | Text Only | Print | Product List | Glossary Off
Versions: 1 2 3 4 5 6 7 8 9 10 11 12 13 14 15 16 17 18 19 20 21 22 23 24 25 26 27 28 29 30 31 32 33 34 35 36 37 38 39 40 41 42 43 44 45 46 47 48 49 50

000
ASUS43 KIWX 070200
RWRIWX

KIWX WEATHER ROUNDUP
NATIONAL WEATHER SERVICE NORTHERN INDIANA
1000 PM EDT MON JUL 06 2015

NOTE: "FAIR" INDICATES FEW OR NO CLOUDS BELOW 12,000 FEET WITH NO
SIGNIFICANT WEATHER AND/OR OBSTRUCTIONS TO VISIBILITY.

* THESE STATIONS ARE NOT UNDER NWS QUALITY CONTROL. THEY ALSO MAY NOT
  REPORT WEATHER SUCH AS PRECIPITATION OR FOG.

INZ001>027-070300-
NORTHERN INDIANA

CITY           SKY/WX    TMP DP  RH WIND       PRES   REMARKS
GARY*          MOCLDY   N/A N/A N/A S7        29.87F
SOUTH BEND     MOCLDY    80  69  69 S14       29.89S
GOSHEN         CLOUDY    77  67  71 S6        29.91R
MONTICELLO*    CLOUDY    79  72  80 S5        29.91R
ANGOLA*          N/A     75  70  83 S5        29.93R
FORT WAYNE     CLOUDY    76  67  73 S8        29.94S
PERU/GRISSOM   CLOUDY    77  70  79 S8        29.93R

$$
INZ028>050-070300-
CENTRAL INDIANA

CITY           SKY/WX    TMP DP  RH WIND       PRES   REMARKS
LAFAYETTE      CLOUDY    78  71  79 S5        29.92R
KOKOMO*        CLOUDY    79  66  65 S9        29.94R
MUNCIE*        MOCLDY    79  68  69 S10       29.96S
INDIANAPOLIS   MOCLDY    78  69  73 S8        29.96R

$$
MIZ043>046-050>051-056>058-064>065-071>073-077>080-070300-
SOUTHWEST LOWER MICHIGAN

CITY           SKY/WX    TMP DP  RH WIND       PRES   REMARKS
BATTLE CREEK   CLOUDY    79  66  64 S9        29.90S
BENTON HARBOR  CLOUDY    80  69  69 S9        29.85F
COLDWATER*     CLOUDY    76  64  67 S5        29.92S
HILLSDALE*     MOCLDY    76  67  71 CALM      29.94R
HOLLAND        CLOUDY    80  68  66 S8        29.85S
GRAND RAPIDS   CLOUDY    79  66  64 S9        29.85F
KALAMAZOO      CLOUDY    78  66  66 S8        29.89S
STURGIS*       CLOUDY    75  66  73 S7        29.91S
THREE RIVERS*  FAIR      77  65  67 S7        29.90S

$$
OHZ001>008-015>018-024>025-070300-
NORTHWEST OHIO

CITY           SKY/WX    TMP DP  RH WIND       PRES   REMARKS
DEFIANCE       MOCLDY    79  65  62 S8        29.93F
FINDLAY        PTCLDY    74  64  71 S9        29.95F
TOLEDO EXPRESS PTCLDY    74  64  71 S5        29.92F
TOLEDO METCALF PTCLDY    74  63  68 S7        29.94F
LIMA           PTCLDY    74  65  73 S7        29.96F

$$
AND FOR LAKE MICHIGAN COASTAL AND OPEN LAKE BUOY OBSERVATIONS

STATION/POSITION TEMP    WIND        PRES    VSBY  WAVE
                 AIR SEA DIR/SP/G                  HT/PER
                 (F)     (DEG/KT/KT) (MB)    (MI)  (FT/S)
CALUMET HARBOR    78     180/  9/ 12   N/A
MICHIGAN CITY     76     160/ 14/ 18   N/A
BURNS HARBOR      76     170/  9/ 14 1011.5F
SAINT JOSEPH      80     160/  5/  9 1011.9S
4 MI NW BRIDGMAN  72 67  200/ 10/ 12   N/A           1/ 2
MICHIGAN CITY     74 68  200/ 12/ 17   N/A           1/ 2
MICHIGAN CITY CG  75 66  180/ 14       N/A       6   2

$$
&&


USA.gov is the U.S. government's official web portal to all federal, state and local government web resources and services.